Location: Franzen
(48.6167°N, 15.3833°E)
Time: 06:18:05
(UTC+00:00)

Tiros 1 despin weight - All Passes

Search period start: 31 July 2021 00:00
Search period end: 10 August 2021 00:00
Orbit: 593 x 642 km, 48.2° (Epoch: 30 July)

Date Brightness Start Highest point End Pass type
(mag) Time Alt. Az. Time Alt. Az. Time Alt. Az.
31 Jul - 12:22:26 10° SSW 12:26:24 28° SE 12:30:22 10° E daylight
31 Jul - 14:02:52 10° WSW 14:07:32 69° SSE 14:12:12 10° E daylight
31 Jul - 15:44:22 10° W 15:49:06 85° S 15:53:46 10° E daylight
31 Jul - 17:25:59 10° W 17:30:30 48° SSW 17:34:58 10° SE daylight
31 Jul - 19:08:36 10° WSW 19:11:17 15° SW 19:13:58 10° S visible
01 Aug - 10:59:53 10° SSE 11:01:45 12° SE 11:03:38 10° ESE daylight
01 Aug - 12:38:02 10° SW 12:42:26 42° SSE 12:46:52 10° E daylight
01 Aug - 14:19:05 10° W 14:23:47 82° S 14:28:29 10° E daylight
01 Aug - 16:00:40 10° W 16:05:21 75° SSW 16:10:02 10° ESE daylight
01 Aug - 17:42:24 10° W 17:46:35 33° SSW 17:50:42 10° SSE daylight
02 Aug - 11:14:07 10° S 11:17:36 21° SE 11:21:06 10° E daylight
02 Aug - 12:53:58 10° WSW 12:58:34 59° SSE 13:03:12 10° E daylight
02 Aug - 14:35:22 10° W 14:40:04 87° S 14:44:47 10° E daylight
02 Aug - 16:16:57 10° W 16:21:35 59° SSW 16:26:10 10° ESE daylight
02 Aug - 17:59:04 10° W 18:02:33 21° SW 18:06:00 10° S daylight
03 Aug - 11:29:24 10° SSW 11:33:34 33° SSE 11:37:46 10° E daylight
03 Aug - 13:10:07 10° WSW 13:14:47 75° SSE 13:19:29 10° E daylight
03 Aug - 14:51:39 10° W 14:56:22 82° S 15:01:04 10° E daylight
03 Aug - 16:33:17 10° W 16:37:43 42° SSW 16:42:05 10° SE daylight
03 Aug - 18:16:33 10° WSW 18:18:23 12° SW 18:20:13 10° SSW daylight
04 Aug - 10:06:08 10° S 10:08:50 15° SE 10:11:34 10° ESE daylight
04 Aug - 11:45:09 10° SW 11:49:39 48° SSE 11:54:10 10° E daylight
04 Aug - 13:26:21 10° W 13:31:04 85° S 13:35:46 10° E daylight
04 Aug - 15:07:56 10° W 15:12:37 69° SSW 15:17:16 10° ESE daylight
04 Aug - 16:49:46 10° W 16:53:45 28° SW 16:57:41 10° SSE daylight
05 Aug - 10:20:57 10° SSW 10:24:44 25° SE 10:28:34 10° E daylight
05 Aug - 12:01:11 10° WSW 12:05:49 66° SSE 12:10:28 10° E daylight
05 Aug - 13:42:39 10° W 13:47:21 86° S 13:52:04 10° E daylight
05 Aug - 15:24:14 10° W 15:28:48 52° SSW 15:33:20 10° SE daylight
05 Aug - 17:06:38 10° W 17:09:39 17° SW 17:12:40 10° S daylight
06 Aug - 08:59:06 10° SSE 09:00:08 11° SE 09:01:10 10° ESE daylight
06 Aug - 10:36:27 10° SW 10:40:45 38° SSE 10:45:06 10° E daylight
06 Aug - 12:17:22 10° WSW 12:22:04 80° S 12:26:46 10° E daylight
06 Aug - 13:58:56 10° W 14:03:38 78° SSW 14:08:20 10° ESE daylight
06 Aug - 15:40:37 10° W 15:44:54 36° SSW 15:49:09 10° SE daylight
07 Aug - 09:12:44 10° S 09:15:57 19° SE 09:19:13 10° E daylight
07 Aug - 10:52:19 10° SW 10:56:52 55° SSE 11:01:27 10° E daylight
07 Aug - 12:33:39 10° W 12:38:20 87° S 12:43:04 10° E daylight
07 Aug - 14:15:13 10° W 14:19:52 63° SSW 14:24:30 10° ESE daylight
07 Aug - 15:57:12 10° W 16:00:53 23° SW 16:04:33 10° SSE daylight
08 Aug - 09:27:52 10° SSW 09:31:54 30° SSE 09:35:57 10° E daylight
08 Aug - 11:08:25 10° WSW 11:13:04 72° SSE 11:17:45 10° E daylight
08 Aug - 12:49:56 10° W 12:54:38 84° S 12:59:20 10° E daylight
08 Aug - 14:31:32 10° W 14:36:01 45° SSW 14:40:29 10° SE daylight
08 Aug - 16:14:24 10° WSW 16:16:46 14° SW 16:19:06 10° SSW daylight
09 Aug - 08:04:57 10° SSE 08:07:13 14° SE 08:09:30 10° ESE daylight
09 Aug - 09:43:32 10° SW 09:47:57 45° SSE 09:52:24 10° E daylight
09 Aug - 11:24:39 10° W 11:29:19 84° S 11:34:02 10° E daylight
09 Aug - 13:06:12 10° W 13:10:53 72° SSW 13:15:34 10° ESE daylight
09 Aug - 14:47:58 10° W 14:52:04 30° SSW 14:56:08 10° SSE daylight
